Location: Groß Eilstorf
(52.8200°N, 9.4552°E)
Time: 10:53:31
(UTC+00:00)

ARIANE 5 R/B - Pass Details

Date: 15 May 2026
Orbit: 614 x 648 km, 98.0° (Epoch: 14 September)

Event Time Altitude Azimuth Distance (km) Brightness Sun altitude
Exits shadow 22:52:41 34° 197° (SSW) 1,054 3.2 -17.9°
Maximum altitude 22:54:22 57° 259° (W) 763 2.9 -17.9°
Drops below altitude 10° 22:58:47 10° 338° (NNW) 2,055 6.4 -18.0°
Sets 23:01:03 0° 343° (NNW) 2,972 7.6 -18.0°
